Location: Gemeinfeld
(50.1526°N, 10.6604°E)
Time: 08:39:35
(UTC+00:00)

Daily predictions for brighter satellites

Satellite Brightness Start Highest point End
(mag) Time Altitude Azimuth Time Altitude Azimuth Time Altitude Azimuth
Meteor 1-27 4.2 19:28:35 10° S 19:34:13 81° E 19:39:49 10° NNE
MetOp-B 4.3 19:34:31 10° SSE 19:39:53 81° WSW 19:45:17 10° NNW
Cosmos 1980 Rocket 3.5 19:37:31 10° NW 19:42:44 38° WSW 19:47:54 10° S
Cosmos 2061 Rocket 4.1 19:37:22 10° S 19:43:28 60° E 19:49:40 10° NNE
CZ-4 R/B 2.7 19:41:28 10° SSW 19:44:48 34° W 19:48:10 10° NNW
USA 186 2.0 19:43:04 10° SE 19:45:38 39° ENE 19:48:16 10° N
Cosmos 2228 2.8 19:41:58 10° S 19:46:04 80° E 19:50:10 10° NNE
COSMOS 2406 3.5 19:41:14 10° S 19:46:42 47° ESE 19:52:11 10° NE
SL-08 R/B 3.4 19:42:55 10° NNE 19:47:42 61° ESE 19:52:22 10° S
CZ-4B R/B 4.4 19:43:48 10° ESE 19:47:59 31° ENE 19:52:15 10° N
Cosmos 1933 4.3 19:45:32 10° SSE 19:48:44 26° E 19:51:57 10° NNE
Cosmos 1743 3.8 19:46:22 10° NNW 19:49:08 33° W 19:51:52 10° SSW
ISS -3.5 19:46:35 10° W 19:49:55 70° N 19:53:16 10° ENE
Cosmos 1461 3.1 19:47:13 10° S 19:50:38 36° ESE 19:54:03 10° NE
Cosmos 1455 Rocket 3.7 19:46:31 10° SSW 19:50:51 61° WNW 19:55:13 10° N
Cosmos 1992 Rocket 4.0 19:45:51 10° S 19:50:59 65° ESE 19:56:09 10° NNE
SKYMED 3 4.3 19:47:36 10° NNE 19:51:35 81° ESE 19:55:33 10° SSW
Cosmos 1802 Rocket 4.3 19:45:42 10° SSW 19:51:50 71° W 19:58:00 10° N
Terra 2.4 19:48:12 10° S 19:52:50 59° W 19:57:29 10° NNW
Meteor 1-20 Rocket 4.5 19:48:00 10° N 19:53:32 57° ENE 19:59:07 10° SSE
Okean O Rocket 1.5 19:53:06 10° SSE 19:57:23 79° ENE 20:01:43 10° NNW
Cosmos 2333 Rocket 2.3 19:53:20 10° NNW 19:59:03 70° ENE 20:04:29 11° SE
Cosmos 1544 Rocket 3.7 20:00:23 10° S 20:04:37 54° E 20:08:50 10° NNE
NOSS 3-3 (A) 3.7 19:59:24 10° SW 20:04:38 89° SE 20:11:00 10° NE
Cosmos 1437 Rocket 2.9 20:03:41 10° S 20:07:04 44° E 20:10:31 10° NNE
Helios 1A Rocket 3.7 20:06:02 10° N 20:09:00 40° WNW 20:11:58 10° SW
Cosmos 2360 Rocket 2.7 20:03:29 10° NNW 20:09:03 52° NE 20:13:59 13° SE
CZ-4B R/B 4.1 20:07:47 10° S 20:13:14 48° W 20:18:39 10° NNW
EP 1 4.3 20:11:17 10° NW 20:13:52 70° NE 20:15:44 18° SE
Cosmos 2233 Rocket 4.2 20:09:15 10° SSW 20:15:25 73° W 20:21:36 10° N
Okean-O 2.9 20:15:15 10° S 20:19:36 66° WSW 20:23:58 10° NNW
Cosmos 1486 Rocket 4.2 20:14:22 10° NNW 20:19:36 65° ENE 20:23:55 15° SE
Cosmos 1758 Rocket 3.7 20:17:03 10° NNW 20:21:27 77° W 20:25:51 10° S
Cosmos 2219 Rocket 2.9 20:16:20 10° NNW 20:21:45 43° NE 20:26:24 14° ESE
Cosmos 909 Rocket 4.2 20:15:35 10° SW 20:21:53 83° NW 20:28:31 10° NE
CZ-2C R/B 3.2 20:21:09 18° ESE 20:22:33 27° ENE 20:24:59 10° N
DNEPR-1 R/B 4.4 20:24:09 10° NW 20:29:36 84° SW 20:34:57 16° SE
Nadezhda 4 Rocket 4.2 20:24:41 10° N 20:30:42 54° ENE 20:35:26 17° SSE
Meteor 1-25 Rocket 4.2 20:25:13 10° N 20:30:55 83° ENE 20:35:41 15° SSE
USA 245 4.3 20:25:40 12° SSE 20:31:07 89° ENE 20:36:37 10° NNW
IRS-1C Rocket 4.2 20:27:09 15° SSE 20:31:28 69° ENE 20:36:43 10° N
Cosmos 1825 Rocket 4.1 20:29:54 10° N 20:34:06 45° ENE 20:36:52 19° SE
Cosmos 1805 2.9 20:31:28 10° N 20:34:42 61° ENE 20:36:34 23° SSE
Cosmos 220 Rocket 3.8 20:33:01 10° SSW 20:37:03 70° ESE 20:41:09 10° NNE
NOSS 3-3 (C) 4.1 20:31:56 10° SW 20:37:16 72° NW 20:43:45 10° NE
Meteor 2-10 4.4 20:32:51 10° N 20:38:35 65° ENE 20:42:49 18° SSE
Cosmos 2322 Rocket 2.2 20:35:56 10° NNW 20:41:38 88° NE 20:45:49 19° SSE
RESURS DK-1 4.5 20:39:33 10° N 20:42:18 18° NE 20:45:03 10° E
Cosmos 1602 Rocket 3.6 20:41:05 10° NNW 20:45:25 75° W 20:48:44 17° S
USA 306 3.5 20:43:46 10° WNW 20:46:10 26° N 20:47:38 12° NE
Cosmos 2082 Rocket 3.7 20:41:38 10° WSW 20:46:58 39° NW 20:52:20 10° NNE
NOSS 3-4 (A) 3.9 20:42:34 10° NW 20:49:14 76° SW 20:55:07 19° SSE
NOSS 3-4 (C) 3.9 20:43:12 10° NW 20:49:53 77° SW 20:55:45 19° SSE
Cosmos 1707 3.9 20:52:04 16° E 20:52:04 16° E 20:53:43 10° NE
CZ-4B R/B 2.9 20:49:58 19° S 20:52:11 57° W 20:55:38 10° NNW
Cosmos 2058 Rocket 4.4 20:53:53 20° ESE 20:55:20 24° E 20:58:47 10° NE
Cosmos 2151 4.0 20:51:43 10° NNW 20:55:35 40° W 20:59:05 12° SSW
Cosmos 2098 Rocket 3.0 20:53:24 15° S 20:57:22 85° E 21:01:27 10° N
Cosmos 1076 Rocket 3.7 20:53:57 10° N 20:58:09 57° ENE 21:00:20 26° SE
Cosmos 44 3.9 20:53:42 10° NW 20:59:03 57° NE 21:02:45 19° ESE
Cosmos 2237 Rocket 4.3 20:55:23 10° N 20:59:25 19° NE 21:03:27 10° E
CZ-4C R/B 4.4 20:56:44 10° WNW 21:00:56 27° NNW 21:06:08 10° NE
Ariane Rocket 3.2 20:59:02 18° S 21:02:44 69° WSW 21:07:48 10° NNW
Cosmos 2278 4.5 21:03:14 10° NW 21:08:40 45° WSW 21:12:37 18° S
SL-16 R/B 3.4 21:07:32 10° NW 21:12:34 34° WSW 21:16:43 14° SSW
SPOT 3 Rocket 4.4 21:09:24 15° SSW 21:13:28 45° W 21:18:23 10° NNW
COSMOS 2428 3.7 21:08:17 10° NNW 21:13:37 38° NE 21:17:37 16° ESE
Cosmos 1763 Rocket 3.5 21:10:53 18° S 21:14:47 65° ESE 21:20:01 10° NNE
Cosmos 1470 4.3 21:13:04 10° NNE 21:15:20 17° ENE 21:16:07 16° E
ARIANE 5 R/B 4.4 21:15:19 14° E 21:17:40 21° ENE 21:21:03 10° NNE
USA 290 2.3 21:18:07 24° SW 21:19:52 72° WNW 21:23:01 10° NNE
Cosmos 1606 Rocket 3.6 21:17:15 19° SSW 21:20:16 75° WNW 21:24:35 10° N
Cosmos 1898 Rocket 4.4 21:16:29 10° NNW 21:21:21 38° ENE 21:24:24 20° ESE
Cosmos 990 Rocket 4.0 21:18:08 10° NNW 21:23:20 82° WSW 21:26:04 29° SSE
Cosmos 1464 Rocket 4.1 21:18:41 13° SSW 21:24:15 74° WNW 21:30:28 10° N
Helios 1B rocket 3.1 21:24:22 27° ESE 21:25:23 32° ENE 21:28:34 10° N
CZ-4B R/B 4.3 21:23:16 17° SSW 21:26:30 40° W 21:31:04 10° NNW
ISS -3.8 21:23:30 10° WNW 21:26:52 82° N 21:28:15 33° E
Okean 1 3.2 21:25:54 27° SSW 21:27:40 68° WNW 21:31:16 10° N
Cosmos 1726 Rocket 3.3 21:25:49 27° SSW 21:27:56 84° W 21:32:00 10° N
BREEZE-M DEB (TANK) 1.9 21:26:30 10° W 21:28:12 40° W 21:28:12 40° W
Okean O Rocket 4.1 21:32:09 10° WSW 21:34:09 13° W 21:36:08 10° WNW
Cosmos 1536 2.7 21:32:23 10° N 21:36:02 60° ENE 21:36:59 43° SE
Cosmos-2242 2.8 21:37:47 38° S 21:39:15 73° E 21:43:22 10° NNE
Cosmos 1092 Rocket 3.9 21:35:44 10° N 21:41:56 86° E 21:45:20 29° S
Cosmos 2333 Rocket 3.9 21:38:26 10° NW 21:42:49 23° WSW 21:46:30 13° SSW
KORONAS-FOTON 3.7 21:43:53 49° ESE 21:44:10 51° E 21:47:29 10° NNE
Cosmos 2297 Rocket 3.7 21:46:14 18° ESE 21:47:03 19° E 21:50:52 10° ENE
Cosmos 841 Rocket 4.3 21:47:27 30° SE 21:48:41 34° ESE 21:53:22 10° NE
Cosmos 1833 4.3 21:44:12 11° SSW 21:49:40 78° WNW 21:55:20 10° NNE
Cosmos 2360 Rocket 3.4 21:47:51 10° NW 21:52:48 32° WSW 21:55:44 20° SSW
CZ-2C R/B 4.4 21:52:45 14° WSW 21:53:22 15° W 21:55:01 10° WNW
Cosmos 1766 3.1 21:53:11 10° NNW 21:56:20 54° W 21:56:45 49° SW
Cosmos 1842 3.0 21:56:49 50° E 21:56:49 50° E 21:59:46 10° NNE
Cosmos 2322 3.7 21:51:51 10° NNW 21:57:36 78° ENE 22:00:18 32° SE
Cosmos 1975 3.2 21:55:06 10° N 21:58:37 41° ENE 21:59:14 38° ESE
Spot 4 4.4 21:57:15 31° ESE 21:59:10 49° ENE 22:03:47 10° N
Meteor 2-6 Rocket 4.4 21:58:28 32° S 22:01:14 67° E 22:07:09 10° NNE
Cosmos 372 Rocket 3.9 21:58:20 10° NNW 22:03:28 82° WSW 22:05:24 39° SSE
Cosmos 2034 Rocket 4.5 21:58:35 17° SSW 22:03:30 59° WNW 22:09:46 10° N
Cosmos 2221 3.0 22:03:18 37° ESE 22:03:59 41° E 22:07:55 10° NNE
Cosmos 2219 Rocket 3.0 22:00:25 10° NW 22:05:39 39° WSW 22:08:05 26° SSW
Cosmos 1271 Rocket 2.4 22:06:21 58° ESE 22:06:24 59° E 22:09:44 10° NNE
SL-08 ROCKET BODY 4.4 22:04:31 10° N 22:10:45 86° E 22:13:38 34° SSE
Cosmos 540 Rocket 4.2 22:07:44 13° SW 22:12:07 52° WNW 22:17:10 10° NNE
Helios 1A 3.2 22:12:52 10° N 22:16:45 59° WNW 22:18:07 36° SW
Cosmos 2279 Rocket 3.9 22:16:39 33° S 22:19:39 81° E 22:25:57 10° NNE
RESURS DK-1 2.2 22:16:09 10° NNW 22:20:08 75° WSW 22:20:45 60° S
Aureole 1 Rocket 4.4 22:15:50 10° NNW 22:21:30 51° WSW 22:24:34 30° SSW
Cosmos 1707 3.8 22:23:33 23° W 22:23:56 24° WNW 22:26:20 10° NNW
Cosmos 2322 Rocket 4.2 22:21:20 10° WNW 22:24:54 17° W 22:27:37 13° SW
Cosmos 1634 Rocket 4.2 22:22:34 27° SSW 22:26:06 68° WNW 22:32:19 10° N
Meteor 1-19 Rocket 4.4 22:24:38 37° SSE 22:26:52 65° E 22:32:47 10° NNE
Cosmos 1937 Rocket 3.4 22:23:13 10° NNW 22:28:24 90° ENE 22:30:09 43° SSE
TSX-5 4.3 22:27:19 10° NW 22:29:55 35° W 22:29:55 35° W
Geosat 4.3 22:27:22 10° NNE 22:32:20 65° NW 22:35:38 21° SW
SL-16 R/B 4.1 22:28:05 10° NNW 22:32:45 25° NE 22:37:24 10° E
Cosmos 2058 Rocket 4.1 22:30:59 25° SW 22:32:57 39° WNW 22:37:03 10° N
CZ-2C R/B 3.6 22:28:31 10° NNE 22:33:01 83° ESE 22:34:15 48° S
Cosmos 468 Rocket 4.4 22:30:13 23° SW 22:33:30 60° WNW 22:38:43 10° NNE
GP-B 3.6 22:31:04 10° NNE 22:35:18 46° E 22:36:11 40° ESE
Meteor 2-9 Rocket 4.2 22:34:02 10° NNW 22:39:25 70° W 22:41:24 40° S
CZ-2C R/B 3.4 22:39:10 25° ESE 22:41:39 42° ENE 22:46:31 10° N
Lacrosse 4 Rocket 2.8 22:42:44 24° E 22:42:44 24° E 22:45:27 10° ENE
Cosmos 2237 Rocket 2.3 22:38:50 10° NNW 22:44:32 71° ENE 22:47:09 33° SE
SeaSat 1 4.1 22:42:55 10° ESE 22:47:02 30° NE 22:51:16 10° NNW
USA 234 3.6 22:41:26 10° ENE 22:47:39 44° SE 22:49:36 35° S
Cosmos 2266 Rocket 3.9 22:41:53 10° N 22:47:58 87° E 22:50:26 38° SSE
Cosmos 1980 3.7 22:43:06 10° NNW 22:48:48 81° ENE 22:51:12 36° SE
Cosmos 1470 3.5 22:46:22 10° NNW 22:49:19 33° W 22:49:19 33° W
ATLAS 2AS CENTAUR R/B 4.4 22:46:42 10° NW 22:52:43 32° NNE 22:58:42 10° E
Intercosmos 24 3.8 22:49:19 10° N 22:53:07 59° ENE 22:53:29 55° ESE
ARIANE 5 R/B 2.9 22:52:41 45° SW 22:53:37 55° W 22:58:02 10° NNW
ALOS 2 2.7 22:54:46 50° SSW 22:55:39 63° W 23:00:02 10° NNW
Cosmos 2227 Rocket 3.3 22:55:49 25° SE 22:57:02 28° ESE 23:01:45 10° NE
COSMOS 2428 3.2 22:52:33 10° NW 22:57:57 45° WSW 22:59:34 36° SSW
Helios 1B rocket 3.8 22:58:18 21° W 22:58:26 21° W 23:01:09 10° NW
Meteor 2-4 Rocket 4.1 23:00:13 36° SE 23:01:55 49° E 23:07:15 10° NNE
BlueWalker 3 3.8 23:05:21 17° E 23:05:21 17° E 23:06:27 10° ENE
Cosmos 1898 Rocket 4.3 22:58:34 10° NW 23:03:18 37° WSW 23:04:34 32° SW
ISS -1.4 23:00:27 10° W 23:01:11 15° W 23:01:11 15° W
Cosmos 2263 Rocket 3.7 23:03:56 19° ESE 23:05:11 21° E 23:09:11 10° NE
CZ-2C R/B 3.4 23:01:37 10° NNE 23:07:22 64° E 23:09:26 40° SSE
Meteor 1-11 Rocket 3.8 23:02:41 10° NNW 23:08:17 63° W 23:10:10 40° SSW
Cosmos 1766 Rocket 3.5 23:04:57 10° N 23:09:15 71° ENE 23:10:08 53° SE
SAR-Lupe-2 4.0 23:10:57 46° W 23:10:57 46° W 23:13:55 10° NNW
Meteor 1-10 Rocket 4.4 23:11:29 35° SSW 23:14:02 71° WNW 23:20:00 10° N
Cosmos 1238 Rocket 2.9 23:14:04 59° SE 23:14:37 67° E 23:19:00 10° NNE
PSLV R/B 3.8 23:11:51 10° N 23:16:07 65° WNW 23:17:16 45° SW
Cosmos 1655 Rocket 4.0 23:15:12 10° N 23:21:29 80° E 23:24:15 36° SSE
Cosmos 192 4.3 23:17:41 10° NNW 23:22:39 79° ENE 23:24:20 42° SE
Cosmos 1814 Rocket 4.4 23:21:58 40° SSE 23:23:15 49° ESE 23:28:19 10° NNE
Alouette 2 Rocket 3.5 23:23:18 10° NNW 23:27:07 88° ENE 23:28:18 50° SSE
Meteor 1-27 Rocket 3.8 23:25:49 39° SSW 23:28:06 81° WNW 23:33:52 10° N
Meteor 2-10 Rocket 3.8 23:24:16 10° N 23:29:49 73° ENE 23:32:13 36° SSE
Cosmos 841 Rocket 4.4 23:27:23 22° WSW 23:30:21 42° WNW 23:35:21 10° NNE
Cosmos 2297 Rocket 2.2 23:27:59 36° SW 23:30:22 82° WNW 23:36:04 10° NNE
SL-14 R/B 3.9 23:39:49 38° ESE 23:40:16 40° E 23:43:51 10° NNE
Cosmos 2221 4.3 23:39:35 18° W 23:41:10 22° WNW 23:44:31 10° NNW
Cosmos 158 Rocket 4.0 23:39:40 44° S 23:41:24 76° ESE 23:46:44 10° NNE
CZ-4C R/B 3.7 23:38:28 10° NNE 23:41:44 41° E 23:41:47 41° ESE
ACS3 Solar Sail 2.3 23:37:45 10° NNE 23:43:32 47° E 23:46:10 29° SSE
MetOp-A 4.3 23:42:38 39° SW 23:43:40 45° W 23:48:09 10° NNW
Landsat 5 3.3 23:43:45 10° NNE 23:47:50 74° ESE 23:48:28 59° SSE
Cosmos 1500 Rocket 4.5 23:44:50 10° N 23:49:04 42° ENE 23:50:57 27° SE
